Location: ???????
(54.9996°N, 37.9529°E)
Time: 13:51:58
(UTC+00:00)

Cosmos 1484 Rocket - Pass Details

Date: 14 April 2024
Orbit: 480 x 525 km, 97.6° (Epoch: 18 May)

Event Time Altitude Azimuth Distance (km) Brightness Sun altitude
Rises 01:26:31 0° 21° (NNE) 2,591 7.2 -8.7°
Reaches altitude 10° 01:28:47 10° 32° (NNE) 1,695 6.4 -8.4°
Maximum altitude 01:32:03 31° 96° (E) 889 4.6 -8.0°
Drops below altitude 10° 01:35:15 10° 160° (SSE) 1,664 5.2 -7.6°
Sets 01:37:28 0° 171° (S) 2,535 6.0 -7.3°
